sat.trackr.live / text

‹ back to catalog

STARLINK-37961

NORAD 69691 · 2026-145Q

PAYLOAD ACTIVE UNKNOWN

§ Identity

Operator
Country
US
Launch date
2026-06-25
Launch site
AFWTR
Launch vehicle
Mass (kg)
RCS (m²)

Purposes: comms

External: N2YO · Heavens-Above · Gunter

§ Orbital elements

Epoch: 2026-09-20T00:52:09.641280Z

Period
93.91 min
Inclination
97.2847°
Eccentricity
0.0001250
Mean motion
15.33455332 rev/d
Perigee alt
464.7 km
Apogee alt
466.4 km
Semi-major
6,843.6 km
B*
5.2409e-4
RAAN
109.7318°
Arg perigee
97.3323°
Mean anomaly
262.8062°
Rev number
1,347

§ Raw data

STARLINK-379611 69691U 26145Q   26263.03622270  .00016888  00000+0  52409-3 0  99932 69691  97.2847 109.7318 0001250  97.3323 262.8062 15.33455332 13479

JSON: /api/v1/satellites/69691 · /tle

For live sub-satellite position, see the globe view (requires WebGL).

§ Visibility from observer

Set your observer location to see the next 7 days of passes ≥ 10°. The values pass through the URL so the page stays shareable.

No JS? Fill the form by hand. The geolocation button needs JavaScript.